Tracking 27122 objects as of 25-Mar-2023
HD Live streaming from Space Station
objects crossing your sky now

COSMOS 1275 DEB

Track COSMOS 1275 DEB now!
10-day predictions


NORAD ID: 12963
Int'l Code: 1981-053EJ
Perigee: 947.1 km
Apogee: 982.5 km
Inclination: 82.9 °
Period: 104.2 minutes
Semi major axis: 7335 km
RCS: 0.047 m2 (small)
Launch date: June 4, 1981
Source: Commonwealth of Independent States (former USSR) (CIS)
Launch site: PLESETSK MISSILE AND SPACE COMPLEX (PKMTR)

Note: This is SATELLITE DEBRIS
Your satellite tracking list
Your tracking list is empty




NASA's NSSDC Master Catalog

Two Line Element Set (TLE):
1 12963U 81053EJ  23083.95543223  .00000776  00000-0  71010-3 0  9999
2 12963  82.9485 337.7989 0024157 316.4532  55.4293 13.81758780 82778
Source of the keplerian elements: AFSPC